Погода в Нижних Нарыкарах

Россия / Ханты-Мансийский автономный округ - Югра     63°11′19″N   64°56′29″E
темп.,
°C
ветер,
м/с
пор.,
м/с
влажн.,
%
обл.,
%
осадки,
мм/ч
давл.,
гПа
погр.,
м
26 июня, вс
вс2623:00+9сз3694100 0.3 997317
02:00+9ссз4792100 0.1 997460
05:00+9ссз3692100 0.1 997268
08:00+8с71394100 1.1 999721
11:00+7с71291100 1.8 1000820
14:00+8с71390100 0.1 1002848
17:00+10с91487100 0.1 1003871
20:00+9с61384100 0.1 1004694
27 июня, пн
пн2723:00+11ссз71370100 0.3 1004746
02:00+9ссз71372100 0.0 1004499
05:00+8ссз61174100 0.0 1004501
08:00+8ссз5971100 0.1 1004584
11:00+8ссз5975100 0.2 1005699
14:00+11ссз5862100 0.1 10051337
17:00+11ссз776199 0.1 10051172
20:00+10сз6106297 0.0 1005872
28 июня, вт
вт2823:00+9сз51260100 0.0 1004451
02:00+8ссз4875100 0.1 1003388
05:00+7сз61193100 1.3 1003943
08:00+6сз61194100 2.0 10031068
11:00+8ссз61291100 2.4 1003831
14:00+8с91594100 1.9 1005752
17:00+9с71691100 6.2 1007810
20:00+11с61581100 0.4 1007634
29 июня, ср
ср2923:00+10с9176548 0.4 1008614
02:00+7с715725 0.0 1009486
05:00+7с7157039 0.0 1010747
08:00+10с7115928 0.0 10091008
11:00+13с685020 0.0 10081550
14:00+13ссв6947100 0.0 10071839
17:00+13с694669 0.0 10071824
20:00+12ссв4755100 0.0 1006821
30 июня, чт
чт3023:00+7св497977 0.0 1007294
02:00+5ссв5117299 0.0 1008497
05:00+6с61073100 0.0 1008899
08:00+8с8116498 0.0 1008950
11:00+5с71388100 0.4 1009817
14:00+6ссз61386100 0.4 1009606
17:00+13с6136293 0.4 10071016
20:00+15с91458100 0.0 10071002